This is the latest recevied weather packets stored in our database for station/object KO4LCK. If no packets are shown the sender has not sent any weather packets the latest 1 day(s).
| Time | Temp. | Humidity | Pressure | Rain* | Wind** | Luminosity | Snow |
|---|---|---|---|---|---|---|---|
| 1778081474 | 22.78° C | 80% | 1015 hPa | 0 mm | - | 585 W/m² | - |
| 1778081171 | 22.22° C | 82% | 1014.9 hPa | 0 mm | - | 816 W/m² | - |
| 1778080567 | 20.56° C | 87% | 1014.9 hPa | 0 mm | - | 399 W/m² | - |
| 1778079960 | 20° C | 88% | 1015.6 hPa | 0 mm | - | 217 W/m² | - |
| 1778079657 | 20° C | 87% | 1016 hPa | 1.27 mm | - | 107 W/m² | - |
| 1778078445 | 20° C | 87% | 1015.8 hPa | 0 mm | - | 90 W/m² | - |
| 1778077841 | 20° C | 86% | 1016 hPa | 0 mm | - | 65 W/m² | - |
| 1778077538 | 20° C | 87% | 1016 hPa | 0 mm | - | 64 W/m² | - |
| 1778076934 | 19.44° C | 86% | 1015.5 hPa | 0 mm | - | 106 W/m² | - |
| 1778076632 | 19.44° C | 86% | 1015.7 hPa | 0 mm | - | 92 W/m² | - |
| 1778075723 | 20° C | 82% | 1015.9 hPa | 0 mm | - | 32 W/m² | - |
| 1778075419 | 20.56° C | 79% | 1015.7 hPa | 0 mm | - | 30 W/m² | - |
| 1778074812 | 20.56° C | 79% | 1015.5 hPa | 0 mm | - | 35 W/m² | - |
| 1778074206 | 20.56° C | 78% | 1015.4 hPa | 0 mm | - | 36 W/m² | - |
| 1778073903 | 20.56° C | 79% | 1015.3 hPa | 0 mm | - | 46 W/m² | - |
| 1778071784 | 20.56° C | 78% | 1014.8 hPa | 0 mm | - | 68 W/m² | - |
| 1778070877 | 20.56° C | 78% | 1014.5 hPa | 0 mm | - | 44 W/m² | - |
| 1778070574 | 20° C | 78% | 1014.5 hPa | 0 mm | - | 48 W/m² | - |
| 1778070271 | 20° C | 78% | 1014.3 hPa | 0 mm | - | 63 W/m² | - |
| 1778069666 | 20° C | 78% | 1014.2 hPa | 0 mm | - | 52 W/m² | - |
| 1778069363 | 20° C | 78% | 1014.1 hPa | 0 mm | - | 50 W/m² | - |
| 1778068154 | 20° C | 78% | 1014 hPa | 0 mm | - | 13 W/m² | - |
| 1778067851 | 20° C | 78% | 1014.1 hPa | 0 mm | - | 10 W/m² | - |
| 1778067550 | 20° C | 78% | 1014.1 hPa | 0 mm | - | 15 W/m² | - |
| 1778067247 | 20° C | 77% | 1014 hPa | 0 mm | - | 17 W/m² | - |
* Rain latest hour (hover to see other rain measurements)
** Current wind speed in m/s (hover to see current wind gust speed)